time, Switch, Flow(0), Analog(2)
yyyy/mm/dd HH:MM:SS.fff, True=FILTERED|False=TOTAL, L/min, V
2023/06/11 09:00:02.539, True, 4.639, 0.136645
2023/06/11 09:00:03.043, True, 4.642, 0.136950
2023/06/11 09:00:03.539, True, 4.047, 0.137331
2023/06/11 09:00:04.043, True, 2.319, 0.138094
2023/06/11 09:00:04.547, True, 1.658, 0.136950
2023/06/11 09:00:05.043, True, 0.675, 0.136873
2023/06/11 09:00:05.547, True, 0.994, 0.136110
2023/06/11 09:00:06.051, True, 0.663, 0.136873
2023/06/11 09:00:06.547, True, 0.674, 0.137636
2023/06/11 09:00:07.051, True, 0.663, 0.135576
2023/06/11 09:00:07.555, True, 0.663, 0.138552
2023/06/11 09:00:08.051, True, 0.674, 0.137407
2023/06/11 09:00:08.555, True, 0.663, 0.140307
2023/06/11 09:00:09.059, True, 0.663, 0.135729
2023/06/11 09:00:09.555, True, 0.674, 0.137560
2023/06/11 09:00:10.059, True, 0.663, 0.134051
2023/06/11 09:00:10.563, True, 0.663, 0.136339
2023/06/11 09:00:11.067, True, 0.663, 0.136873
2023/06/11 09:00:11.563, True, 0.674, 0.137407
2023/06/11 09:00:12.067, True, 0.663, 0.136492
2023/06/11 09:00:12.563, True, 0.674, 0.136416
2023/06/11 09:00:13.067, True, 0.663, 0.136492
2023/06/11 09:00:13.571, True, 0.663, 0.138018
2023/06/11 09:00:14.067, True, 0.337, 0.139239
2023/06/11 09:00:14.571, True, 0.663, 0.138094
2023/06/11 09:00:15.075, True, 0.663, 0.137331
2023/06/11 09:00:15.571, True, 0.674, 0.138018
2023/06/11 09:00:16.075, True, 0.663, 0.138323
2023/06/11 09:00:16.571, True, 0.674, 0.135348
2023/06/11 09:00:17.075, True, 0.663, 0.136568
2023/06/11 09:00:17.579, True, 0.664, 0.136263
2023/06/11 09:00:18.083, True, 0.663, 0.137026
2023/06/11 09:00:18.579, True, 0.674, 0.135653
2023/06/11 09:00:19.083, True, 0.663, 0.136568
2023/06/11 09:00:19.587, True, 0.663, 0.137255
2023/06/11 09:00:20.083, True, 0.674, 0.135653
2023/06/11 09:00:20.587, True, 0.664, 0.139391
2023/06/11 09:00:21.091, True, 0.663, 0.136263
2023/06/11 09:00:21.587, True, 0.337, 0.137026
2023/06/11 09:00:22.091, True, 0.664, 0.134813
2023/06/11 09:00:22.595, True, 0.663, 0.136034
2023/06/11 09:00:23.099, True, 0.664, 0.135271
2023/06/11 09:00:23.595, True, 0.674, 0.137636
2023/06/11 09:00:24.099, True, 0.663, 0.137636
2023/06/11 09:00:24.603, True, 0.664, 0.136263
2023/06/11 09:00:25.099, True, 0.674, 0.136797
2023/06/11 09:00:25.603, True, 0.663, 0.137179
2023/06/11 09:00:26.107, True, 0.664, 0.137179
2023/06/11 09:00:26.603, True, 0.674, 0.138857
2023/06/11 09:00:27.107, True, 0.662, 0.136492
2023/06/11 09:00:27.603, True, 0.674, 0.136339
2023/06/11 09:00:28.107, True, 0.664, 0.135882
2023/06/11 09:00:28.611, True, 0.662, 0.138399
2023/06/11 09:00:29.107, True, 0.674, 0.139696
2023/06/11 09:00:29.611, True, 0.663, 0.138399
2023/06/11 09:00:30.115, True, 0.663, 0.139544
2023/06/11 09:00:30.611, True, 0.675, 0.134737
2023/06/11 09:00:31.115, True, 0.662, 0.137560
2023/06/11 09:00:31.619, True, 0.663, 0.136950
2023/06/11 09:00:32.123, True, 0.663, 0.137942
2023/06/11 09:00:32.619, True, 0.674, 0.137102
2023/06/11 09:00:33.123, True, 0.663, 0.136645
2023/06/11 09:00:33.627, True, 0.663, 0.136950
2023/06/11 09:00:34.123, True, 0.674, 0.135805
2023/06/11 09:00:34.627, True, 0.664, 0.136645
2023/06/11 09:00:35.123, True, 0.674, 0.137102
2023/06/11 09:00:35.627, True, 0.664, 0.137026
2023/06/11 09:00:36.130, True, 0.664, 0.135729
2023/06/11 09:00:36.635, True, 0.662, 0.136721
2023/06/11 09:00:37.131, True, 0.674, 0.136416
2023/06/11 09:00:37.635, True, 0.332, 0.138018
2023/06/11 09:00:38.139, True, 0.663, 0.135653
2023/06/11 09:00:38.635, True, 0.674, 0.136873
2023/06/11 09:00:39.139, True, 0.663, 0.137331
2023/06/11 09:00:39.643, True, 0.663, 0.134585
2023/06/11 09:00:40.139, True, 0.674, 0.135500
2023/06/11 09:00:40.643, True, 0.663, 0.136950
2023/06/11 09:00:41.147, True, 0.664, 0.136187
2023/06/11 09:00:41.643, True, 0.673, 0.136645
2023/06/11 09:00:42.147, True, 0.663, 0.138094
2023/06/11 09:00:42.651, True, 0.664, 0.134737
2023/06/11 09:00:43.147, True, 0.673, 0.137407
2023/06/11 09:00:43.651, True, 0.663, 0.137331
2023/06/11 09:00:44.155, True, 0.663, 0.135576
2023/06/11 09:00:44.659, True, 0.663, 0.136263
2023/06/11 09:00:45.155, True, 0.675, 0.137179
2023/06/11 09:00:45.659, True, 0.662, 0.135882
2023/06/11 09:00:46.163, True, 0.663, 0.137255
2023/06/11 09:00:46.659, True, 0.675, 0.137179
2023/06/11 09:00:47.163, True, 0.662, 0.134966
2023/06/11 09:00:47.667, True, 0.332, 0.138476
2023/06/11 09:00:48.171, True, 0.664, 0.137560
2023/06/11 09:00:48.667, True, 0.673, 0.137331
2023/06/11 09:00:49.170, True, 0.663, 0.137331
2023/06/11 09:00:49.667, True, 0.674, 0.135805
2023/06/11 09:00:50.171, True, 0.663, 0.136492
2023/06/11 09:00:50.675, True, 0.663, 0.137179
2023/06/11 09:00:51.171, True, 0.674, 0.135882
2023/06/11 09:00:51.675, True, 0.663, 0.137484
2023/06/11 09:00:52.179, True, 0.663, 0.137407
2023/06/11 09:00:52.675, True, 0.674, 0.136110
2023/06/11 09:00:53.179, True, 0.663, 0.135348
2023/06/11 09:00:53.683, True, 0.663, 0.139315
2023/06/11 09:00:54.179, True, 0.674, 0.136263
2023/06/11 09:00:54.683, True, 0.663, 0.137865
2023/06/11 09:00:55.187, True, 0.663, 0.136873
2023/06/11 09:00:55.683, True, 0.674, 0.138094
2023/06/11 09:00:56.186, True, 0.663, 0.135729
2023/06/11 09:00:56.683, True, 0.674, 0.136110
2023/06/11 09:00:57.187, True, 0.331, 0.136645
2023/06/11 09:00:57.691, True, 0.663, 0.137713
2023/06/11 09:00:58.195, True, 0.663, 0.134890
2023/06/11 09:00:58.691, True, 0.674, 0.139086
2023/06/11 09:00:59.195, True, 0.996, 0.139162
2023/06/11 09:00:59.690, True, 0.337, 0.136034
2023/06/11 09:01:00.195, True, 0.663, 0.134585
2023/06/11 09:01:00.699, True, 0.996, 0.136339
2023/06/11 09:01:01.195, True, 0.337, 0.139010
2023/06/11 09:01:01.699, True, 0.662, 0.136339
2023/06/11 09:01:02.202, True, 0.995, 0.135958
2023/06/11 09:01:02.706, True, 0.664, 0.137407
2023/06/11 09:01:03.203, True, 0.337, 0.135958
2023/06/11 09:01:03.707, True, 0.663, 0.136187
2023/06/11 09:01:04.211, True, 0.995, 0.135882
2023/06/11 09:01:04.706, True, 0.337, 0.136950
2023/06/11 09:01:05.211, True, 0.662, 0.138247
2023/06/11 09:01:05.715, True, 0.664, 0.136416
2023/06/11 09:01:06.210, True, 0.674, 0.137713
2023/06/11 09:01:06.715, True, 0.664, 0.139162
2023/06/11 09:01:07.211, True, 0.672, 0.136568
2023/06/11 09:01:07.715, True, 0.665, 0.138552
2023/06/11 09:01:08.219, True, 0.662, 0.136950
2023/06/11 09:01:08.723, True, 0.664, 0.138857
2023/06/11 09:01:09.218, True, 0.673, 0.137484
2023/06/11 09:01:09.722, True, 0.663, 0.137942
2023/06/11 09:01:10.227, True, 0.663, 0.137102
2023/06/11 09:01:10.723, True, 0.674, 0.137331
2023/06/11 09:01:11.227, True, 0.663, 0.136416
2023/06/11 09:01:11.731, True, 0.663, 0.137636
2023/06/11 09:01:12.227, True, 0.674, 0.137026
2023/06/11 09:01:12.731, True, 0.663, 0.136110
2023/06/11 09:01:13.235, True, 0.663, 0.138781
2023/06/11 09:01:13.731, True, 0.674, 0.135882
2023/06/11 09:01:14.235, True, 0.663, 0.137560
2023/06/11 09:01:14.739, True, 0.663, 0.137331
2023/06/11 09:01:15.235, True, 0.674, 0.137331
2023/06/11 09:01:15.739, True, 0.664, 0.136339
2023/06/11 09:01:16.242, True, 0.662, 0.133974
2023/06/11 09:01:16.739, True, 0.674, 0.135042
2023/06/11 09:01:17.243, True, 0.332, 0.137102
2023/06/11 09:01:17.747, True, 0.663, 0.137331
2023/06/11 09:01:18.243, True, 0.674, 0.136645
2023/06/11 09:01:18.747, True, 0.663, 0.136492
2023/06/11 09:01:19.250, True, 0.663, 0.137789
2023/06/11 09:01:19.747, True, 0.674, 0.135271
2023/06/11 09:01:20.251, True, 0.663, 0.136568
2023/06/11 09:01:20.755, True, 0.663, 0.138476
2023/06/11 09:01:21.259, True, 0.663, 0.136110
2023/06/11 09:01:21.755, True, 0.674, 0.138399
2023/06/11 09:01:22.258, True, 0.664, 0.136339
2023/06/11 09:01:22.763, True, 0.663, 0.140993
2023/06/11 09:01:23.259, True, 0.674, 0.139162
2023/06/11 09:01:23.763, True, 0.663, 0.135805
2023/06/11 09:01:24.259, True, 0.337, 0.135424
2023/06/11 09:01:24.763, True, 0.664, 0.136568
2023/06/11 09:01:25.267, True, 0.663, 0.136416
2023/06/11 09:01:25.763, True, 0.674, 0.136873
2023/06/11 09:01:26.267, True, 0.663, 0.140612
2023/06/11 09:01:26.771, True, 0.663, 0.137636
2023/06/11 09:01:27.267, True, 0.674, 0.138781
2023/06/11 09:01:27.771, True, 0.663, 0.137331
2023/06/11 09:01:28.275, True, 0.663, 0.139620
2023/06/11 09:01:28.771, True, 0.337, 0.135958
2023/06/11 09:01:29.275, True, 0.663, 0.137407
2023/06/11 09:01:29.779, True, 0.663, 0.138399
2023/06/11 09:01:30.275, True, 0.675, 0.140917
2023/06/11 09:01:30.779, True, 0.662, 0.140993
2023/06/11 09:01:31.283, True, 0.663, 0.137255
2023/06/11 09:01:31.779, True, 0.674, 0.139925
2023/06/11 09:01:32.283, True, 0.663, 0.138628
2023/06/11 09:01:32.779, True, 0.674, 0.140612
2023/06/11 09:01:33.283, True, 0.663, 0.140612
2023/06/11 09:01:33.787, True, 0.663, 0.142824
2023/06/11 09:01:34.283, True, 0.675, 0.142214
2023/06/11 09:01:34.787, True, 0.662, 0.140764
2023/06/11 09:01:35.291, True, 0.664, 0.142901
2023/06/11 09:01:35.795, True, 0.331, 0.141680
2023/06/11 09:01:36.291, True, 0.674, 0.139315
2023/06/11 09:01:36.795, True, 0.663, 0.140002
2023/06/11 09:01:37.299, True, 0.663, 0.141146
2023/06/11 09:01:37.803, True, 0.663, 0.142214
2023/06/11 09:01:38.299, True, 0.674, 0.141146
2023/06/11 09:01:38.803, True, 0.663, 0.143053
2023/06/11 09:01:39.299, True, 0.674, 0.143740
2023/06/11 09:01:39.803, True, 0.332, 0.143969
2023/06/11 09:01:40.307, True, 0.663, 0.141527
2023/06/11 09:01:40.803, True, 0.674, 0.146639
2023/06/11 09:01:41.307, True, 0.663, 0.145724
2023/06/11 09:01:41.811, True, 0.995, 0.146334
2023/06/11 09:01:42.307, True, 0.674, 0.147097
2023/06/11 09:01:42.811, True, 0.332, 0.147784
2023/06/11 09:01:43.315, True, 0.663, 0.146868
2023/06/11 09:01:43.811, True, 0.674, 0.145113
2023/06/11 09:01:44.315, True, 0.663, 0.151064
2023/06/11 09:01:44.819, True, 0.663, 0.147707
2023/06/11 09:01:45.315, True, 0.337, 0.147936
2023/06/11 09:01:45.819, True, 0.663, 0.149310
2023/06/11 09:01:46.323, True, 0.663, 0.146029
2023/06/11 09:01:46.819, True, 0.674, 0.148241
2023/06/11 09:01:47.323, True, 0.663, 0.149386
2023/06/11 09:01:47.827, True, 0.663, 0.148318
2023/06/11 09:01:48.323, True, 0.674, 0.147784
2023/06/11 09:01:48.826, True, 0.663, 0.150072
2023/06/11 09:01:49.323, True, 0.674, 0.149310
2023/06/11 09:01:49.827, True, 0.331, 0.149157
2023/06/11 09:01:50.331, True, 0.663, 0.147936
2023/06/11 09:01:50.835, True, 0.663, 0.147555
2023/06/11 09:01:51.330, True, 0.674, 0.148165
2023/06/11 09:01:51.835, True, 0.663, 0.148089
2023/06/11 09:01:52.339, True, 0.663, 0.150759
2023/06/11 09:01:52.835, True, 0.674, 0.148318
2023/06/11 09:01:53.339, True, 0.663, 0.150835
2023/06/11 09:01:53.843, True, 0.663, 0.149996
2023/06/11 09:01:54.339, True, 0.337, 0.149157
2023/06/11 09:01:54.843, True, 0.663, 0.147784
2023/06/11 09:01:55.347, True, 0.663, 0.150149
2023/06/11 09:01:55.843, True, 0.675, 0.149920
2023/06/11 09:01:56.347, True, 0.662, 0.148623
2023/06/11 09:01:56.851, True, 0.663, 0.151904
2023/06/11 09:01:57.355, True, 0.663, 0.149691
2023/06/11 09:01:57.851, True, 0.674, 0.150454
2023/06/11 09:01:58.355, True, 0.663, 0.149386
2023/06/11 09:01:58.859, True, 0.663, 0.149081
2023/06/11 09:01:59.355, True, 0.337, 0.150912
2023/06/11 09:01:59.859, True, 0.663, 0.147631
2023/06/11 09:02:00.363, True, 0.663, 0.149081
2023/06/11 09:02:00.859, True, 0.674, 0.151217
2023/06/11 09:02:01.363, True, 0.663, 0.149767
2023/06/11 09:02:01.867, True, 0.664, 0.151751
2023/06/11 09:02:02.371, True, 0.662, 0.149920
2023/06/11 09:02:02.867, True, 0.674, 0.152590
2023/06/11 09:02:03.371, True, 0.664, 0.151751
2023/06/11 09:02:03.875, True, 0.662, 0.153658
2023/06/11 09:02:04.370, True, 0.337, 0.152819
2023/06/11 09:02:04.874, True, 0.663, 0.153429
2023/06/11 09:02:05.379, True, 0.662, 0.154879
2023/06/11 09:02:05.883, True, 0.663, 0.152895
2023/06/11 09:02:06.379, True, 0.674, 0.151293
2023/06/11 09:02:06.883, True, 0.663, 0.154192
2023/06/11 09:02:07.387, True, 0.663, 0.153658
2023/06/11 09:02:07.882, True, 0.675, 0.154116
2023/06/11 09:02:08.387, True, 0.663, 0.151980
2023/06/11 09:02:08.891, True, 0.663, 0.154726
2023/06/11 09:02:09.395, True, 0.663, 0.152590
2023/06/11 09:02:09.891, True, 0.674, 0.152743
2023/06/11 09:02:10.395, True, 0.663, 0.152972
2023/06/11 09:02:10.898, True, 0.663, 0.153277
2023/06/11 09:02:11.395, True, 0.337, 0.153353
2023/06/11 09:02:11.899, True, 0.663, 0.153735
2023/06/11 09:02:12.403, True, 0.665, 0.155337
2023/06/11 09:02:12.898, True, 0.673, 0.152514
2023/06/11 09:02:13.403, True, 0.663, 0.153429
2023/06/11 09:02:13.907, True, 0.663, 0.153964
2023/06/11 09:02:14.403, True, 0.337, 0.152819
2023/06/11 09:02:14.907, True, 0.663, 0.153964
2023/06/11 09:02:15.411, True, 0.664, 0.155489
2023/06/11 09:02:15.907, True, 0.673, 0.155871
2023/06/11 09:02:16.411, True, 0.663, 0.151904
2023/06/11 09:02:16.915, True, 0.663, 0.154421
2023/06/11 09:02:17.411, True, 0.674, 0.153735
2023/06/11 09:02:17.915, True, 0.663, 0.154345
2023/06/11 09:02:18.418, True, 0.663, 0.155718
2023/06/11 09:02:18.923, True, 0.332, 0.155566
2023/06/11 09:02:19.419, True, 0.675, 0.152361
2023/06/11 09:02:19.923, True, 0.663, 0.153506
2023/06/11 09:02:20.419, True, 0.674, 0.154803
2023/06/11 09:02:20.923, True, 0.663, 0.154726
2023/06/11 09:02:21.427, True, 0.663, 0.151980
2023/06/11 09:02:21.923, True, 0.674, 0.153964
2023/06/11 09:02:22.427, True, 0.663, 0.153353
2023/06/11 09:02:22.930, True, 0.663, 0.153735
2023/06/11 09:02:23.426, True, 0.674, 0.154421
2023/06/11 09:02:23.931, True, 0.663, 0.154192
2023/06/11 09:02:24.435, True, 0.663, 0.152743
2023/06/11 09:02:24.938, True, 0.663, 0.152819
2023/06/11 09:02:25.434, True, 0.337, 0.153582
2023/06/11 09:02:25.938, True, 0.995, 0.153429
2023/06/11 09:02:26.443, True, 0.332, 0.151446
2023/06/11 09:02:26.939, True, 0.674, 0.151980
2023/06/11 09:02:27.443, True, 0.663, 0.152361
2023/06/11 09:02:27.947, True, 0.663, 0.151904
2023/06/11 09:02:28.443, True, 0.675, 0.154345
2023/06/11 09:02:28.947, True, 0.662, 0.151217
2023/06/11 09:02:29.451, True, 0.663, 0.152132
2023/06/11 09:02:29.955, True, 0.663, 0.151827
2023/06/11 09:02:30.450, True, 0.337, 0.153964
2023/06/11 09:02:30.955, True, 0.663, 0.150759
2023/06/11 09:02:31.459, True, 0.664, 0.153048
2023/06/11 09:02:31.955, True, 0.675, 0.152743
2023/06/11 09:02:32.459, True, 0.662, 0.155108
2023/06/11 09:02:32.962, True, 0.663, 0.153582
2023/06/11 09:02:33.459, True, 0.675, 0.150912
2023/06/11 09:02:33.963, True, 0.662, 0.153658
2023/06/11 09:02:34.467, True, 0.663, 0.151827
2023/06/11 09:02:34.963, True, 0.674, 0.151980
2023/06/11 09:02:35.467, True, 0.331, 0.152972
2023/06/11 09:02:35.971, True, 0.663, 0.150225
2023/06/11 09:02:36.467, True, 0.674, 0.151598
2023/06/11 09:02:36.971, True, 0.663, 0.151904
2023/06/11 09:02:37.475, True, 0.664, 0.150607
2023/06/11 09:02:37.971, True, 0.674, 0.152285
2023/06/11 09:02:38.475, True, 0.663, 0.152285
2023/06/11 09:02:38.979, True, 0.663, 0.153429
2023/06/11 09:02:39.474, True, 0.674, 0.151141
2023/06/11 09:02:39.978, True, 0.332, 0.151751
2023/06/11 09:02:40.483, True, 0.663, 0.149844
2023/06/11 09:02:40.979, True, 0.674, 0.151141
2023/06/11 09:02:41.483, True, 0.663, 0.152514
2023/06/11 09:02:41.987, True, 0.663, 0.151446
2023/06/11 09:02:42.483, True, 0.674, 0.152590
2023/06/11 09:02:42.987, True, 0.663, 0.152438
2023/06/11 09:02:43.491, True, 0.663, 0.153811
2023/06/11 09:02:43.987, True, 0.675, 0.153124
2023/06/11 09:02:44.491, True, 0.331, 0.153201
2023/06/11 09:02:44.995, True, 0.663, 0.152132
2023/06/11 09:02:45.499, True, 0.663, 0.151446
2023/06/11 09:02:45.994, True, 0.674, 0.152514
2023/06/11 09:02:46.499, True, 0.663, 0.153506
2023/06/11 09:02:47.003, True, 0.663, 0.149691
2023/06/11 09:02:47.499, True, 0.674, 0.152590
2023/06/11 09:02:48.003, True, 0.663, 0.150607
2023/06/11 09:02:48.499, True, 0.674, 0.152819
2023/06/11 09:02:49.003, True, 0.332, 0.149538
2023/06/11 09:02:49.507, True, 0.663, 0.150378
2023/06/11 09:02:50.003, True, 0.674, 0.151980
2023/06/11 09:02:50.507, True, 0.663, 0.151217
2023/06/11 09:02:51.011, True, 0.663, 0.153201
2023/06/11 09:02:51.507, True, 0.674, 0.151217
2023/06/11 09:02:52.011, True, 0.663, 0.148852
2023/06/11 09:02:52.515, True, 0.663, 0.151217
2023/06/11 09:02:53.011, True, 0.674, 0.151904
2023/06/11 09:02:53.515, True, 0.664, 0.153429
2023/06/11 09:02:54.018, True, 0.331, 0.149233
2023/06/11 09:02:54.515, True, 0.674, 0.150683
2023/06/11 09:02:55.018, True, 0.663, 0.150530
2023/06/11 09:02:55.523, True, 0.663, 0.150454
2023/06/11 09:02:56.019, True, 0.674, 0.150301
2023/06/11 09:02:56.523, True, 0.663, 0.149157
2023/06/11 09:02:57.027, True, 0.663, 0.151217
2023/06/11 09:02:57.522, True, 0.674, 0.149996
2023/06/11 09:02:58.027, True, 0.332, 0.151522
2023/06/11 09:02:58.523, True, 0.674, 0.151293
2023/06/11 09:02:59.027, True, 0.663, 0.152590
2023/06/11 09:02:59.531, True, 0.663, 0.151904
2023/06/11 09:03:00.027, True, 0.674, 0.150225
2023/06/11 09:03:00.531, True, 0.663, 0.149996
2023/06/11 09:03:01.035, True, 0.332, 0.148241
2023/06/11 09:03:01.531, True, 0.673, 0.150683
2023/06/11 09:03:02.035, True, 0.663, 0.151675
2023/06/11 09:03:02.539, True, 0.663, 0.148318
2023/06/11 09:03:03.035, True, 0.674, 0.151904
2023/06/11 09:03:03.539, True, 0.663, 0.151675
2023/06/11 09:03:04.043, True, 0.663, 0.149996
2023/06/11 09:03:04.538, True, 0.674, 0.150530
2023/06/11 09:03:05.043, True, 0.332, 0.149615
2023/06/11 09:03:05.547, True, 0.663, 0.151217
2023/06/11 09:03:06.042, True, 0.675, 0.155642
2023/06/11 09:03:06.547, True, 0.662, 0.152361
2023/06/11 09:03:07.051, True, 0.664, 0.149462
2023/06/11 09:03:07.555, True, 0.662, 0.148775
2023/06/11 09:03:08.051, True, 0.674, 0.150530
2023/06/11 09:03:08.555, True, 0.663, 0.151598
2023/06/11 09:03:09.059, True, 0.663, 0.150912
2023/06/11 09:03:09.563, True, 0.332, 0.150225
2023/06/11 09:03:10.058, True, 0.675, 0.151675
2023/06/11 09:03:10.563, True, 0.662, 0.150454
2023/06/11 09:03:11.059, True, 0.674, 0.150225
2023/06/11 09:03:11.563, True, 0.663, 0.152361
2023/06/11 09:03:12.066, True, 0.664, 0.150835
2023/06/11 09:03:12.563, True, 0.674, 0.151522
2023/06/11 09:03:13.067, True, 0.663, 0.151827
2023/06/11 09:03:13.571, True, 0.332, 0.150378
2023/06/11 09:03:14.075, True, 0.664, 0.150683
2023/06/11 09:03:14.570, True, 0.674, 0.150835
2023/06/11 09:03:15.075, True, 0.663, 0.150072
2023/06/11 09:03:15.571, True, 0.674, 0.151980
2023/06/11 09:03:16.075, True, 0.663, 0.152743
2023/06/11 09:03:16.579, True, 0.663, 0.150378
2023/06/11 09:03:17.075, True, 0.674, 0.149615
2023/06/11 09:03:17.579, True, 0.663, 0.149081
2023/06/11 09:03:18.083, True, 0.663, 0.151827
2023/06/11 09:03:18.579, True, 0.674, 0.151293
2023/06/11 09:03:19.082, True, 0.663, 0.151369
2023/06/11 09:03:19.587, True, 0.663, 0.148699
2023/06/11 09:03:20.082, True, 0.674, 0.150759
2023/06/11 09:03:20.586, True, 0.663, 0.149767
2023/06/11 09:03:21.091, True, 0.663, 0.150988
2023/06/11 09:03:21.587, True, 0.337, 0.152972
2023/06/11 09:03:22.091, True, 0.664, 0.150835
2023/06/11 09:03:22.587, True, 0.673, 0.151141
2023/06/11 09:03:23.090, True, 0.663, 0.153353
2023/06/11 09:03:23.595, True, 0.664, 0.149844
2023/06/11 09:03:24.099, True, 0.663, 0.151827
2023/06/11 09:03:24.595, True, 0.674, 0.152895
2023/06/11 09:03:25.099, True, 0.663, 0.152667
2023/06/11 09:03:25.603, True, 0.663, 0.150835
2023/06/11 09:03:26.099, True, 0.337, 0.151904
2023/06/11 09:03:26.603, True, 0.663, 0.150683
2023/06/11 09:03:27.107, True, 0.663, 0.150835
2023/06/11 09:03:27.603, True, 0.674, 0.148394
2023/06/11 09:03:28.107, True, 0.663, 0.149691
2023/06/11 09:03:28.611, True, 0.664, 0.152438
2023/06/11 09:03:29.107, True, 0.674, 0.150607
2023/06/11 09:03:29.611, True, 0.663, 0.149538
2023/06/11 09:03:30.115, True, 0.664, 0.149920
2023/06/11 09:03:30.611, True, 0.673, 0.150378
2023/06/11 09:03:31.115, True, 0.332, 0.151446
2023/06/11 09:03:31.619, True, 0.662, 0.148699
2023/06/11 09:03:32.115, True, 0.675, 0.148928
2023/06/11 09:03:32.619, True, 0.663, 0.150683
2023/06/11 09:03:33.123, True, 0.663, 0.149386
2023/06/11 09:03:33.627, True, 0.663, 0.151446
2023/06/11 09:03:34.123, True, 0.337, 0.150225
2023/06/11 09:03:34.627, True, 0.663, 0.148852
2023/06/11 09:03:35.123, True, 0.674, 0.151369
2023/06/11 09:03:35.627, True, 0.663, 0.150454
2023/06/11 09:03:36.131, True, 0.663, 0.149462
2023/06/11 09:03:36.627, True, 0.674, 0.152285
2023/06/11 09:03:37.131, True, 0.663, 0.151675
2023/06/11 09:03:37.635, True, 0.663, 0.149615
2023/06/11 09:03:38.131, True, 0.674, 0.149691
2023/06/11 09:03:38.635, True, 0.663, 0.149233
2023/06/11 09:03:39.139, True, 0.663, 0.148623
2023/06/11 09:03:39.643, True, 0.663, 0.149767
2023/06/11 09:03:40.139, True, 0.337, 0.149844
2023/06/11 09:03:40.643, True, 0.663, 0.150988
2023/06/11 09:03:41.147, True, 0.663, 0.149538
2023/06/11 09:03:41.643, True, 0.674, 0.149462
2023/06/11 09:03:42.147, True, 0.332, 0.151293
2023/06/11 09:03:42.651, True, 0.662, 0.151446
2023/06/11 09:03:43.147, True, 0.674, 0.149767
2023/06/11 09:03:43.651, True, 0.663, 0.149386
2023/06/11 09:03:44.155, True, 0.664, 0.149233
2023/06/11 09:03:44.651, True, 0.337, 0.147784
2023/06/11 09:03:45.155, True, 0.663, 0.149844
2023/06/11 09:03:45.659, True, 0.663, 0.150454
2023/06/11 09:03:46.155, True, 0.674, 0.150530
2023/06/11 09:03:46.659, True, 0.663, 0.149920
2023/06/11 09:03:47.162, True, 0.663, 0.149233
2023/06/11 09:03:47.659, True, 0.674, 0.149615
2023/06/11 09:03:48.163, True, 0.663, 0.148547
2023/06/11 09:03:48.666, True, 0.664, 0.148928
2023/06/11 09:03:49.162, True, 0.673, 0.148852
2023/06/11 09:03:49.667, True, 0.663, 0.150683
2023/06/11 09:03:50.170, True, 0.332, 0.150149
2023/06/11 09:03:50.666, True, 0.674, 0.151217
2023/06/11 09:03:51.170, True, 0.664, 0.150912
2023/06/11 09:03:51.674, True, 0.662, 0.151293
2023/06/11 09:03:52.170, True, 0.674, 0.149691
2023/06/11 09:03:52.674, True, 0.663, 0.150149
2023/06/11 09:03:53.179, True, 0.663, 0.150683
2023/06/11 09:03:53.674, True, 0.674, 0.150225
2023/06/11 09:03:54.178, True, 0.332, 0.148089
2023/06/11 09:03:54.675, True, 0.675, 0.149233
2023/06/11 09:03:55.179, True, 0.662, 0.150759
2023/06/11 09:03:55.682, True, 0.663, 0.150530
2023/06/11 09:03:56.187, True, 0.663, 0.150454
2023/06/11 09:03:56.683, True, 0.674, 0.148470
2023/06/11 09:03:57.187, True, 0.332, 0.148928
2023/06/11 09:03:57.691, True, 0.663, 0.149538
2023/06/11 09:03:58.187, True, 0.674, 0.149004
2023/06/11 09:03:58.691, True, 0.663, 0.150454
2023/06/11 09:03:59.195, True, 0.663, 0.150912
2023/06/11 09:03:59.699, True, 0.664, 0.151598
2023/06/11 09:04:00.195, True, 0.674, 0.149844
2023/06/11 09:04:00.699, True, 0.664, 0.150835
2023/06/11 09:04:01.203, True, 0.662, 0.148775
2023/06/11 09:04:01.699, True, 0.337, 0.148089
2023/06/11 09:04:02.202, True, 0.663, 0.148699
2023/06/11 09:04:02.707, True, 0.663, 0.148394
2023/06/11 09:04:03.211, True, 0.663, 0.151141
2023/06/11 09:04:03.707, True, 0.675, 0.149386
2023/06/11 09:04:04.211, True, 0.662, 0.149767
2023/06/11 09:04:04.715, True, 0.663, 0.151141
2023/06/11 09:04:05.219, True, 0.663, 0.148852
2023/06/11 09:04:05.715, True, 0.674, 0.150225
2023/06/11 09:04:06.219, True, 0.663, 0.149767
2023/06/11 09:04:06.715, True, 0.674, 0.147021
2023/06/11 09:04:07.219, True, 0.663, 0.151141
2023/06/11 09:04:07.723, True, 0.664, 0.149691
2023/06/11 09:04:08.227, True, 0.663, 0.150835
2023/06/11 09:04:08.723, True, 0.337, 0.148775
2023/06/11 09:04:09.227, True, 0.663, 0.149844
2023/06/11 09:04:09.731, True, 0.664, 0.150607
2023/06/11 09:04:10.227, True, 0.673, 0.151675
2023/06/11 09:04:10.731, True, 0.663, 0.149081
2023/06/11 09:04:11.235, True, 0.663, 0.148165
2023/06/11 09:04:11.731, True, 0.337, 0.149462